P/2014 K3 ( SOHO )

Japanese version
Home page
Updated on June 15, 2014

---------------------------------------------------------------------

* Profile

* Orbital Elements

Epoch 2014 May 23.0 TT = JDT 2456800.5
T 2014 May 17.88582 TT                                  MPC
q   0.0671057            (2000.0)            P               Q
n   0.18272247     Peri.  144.30899     -0.10984942     -0.94530154
a   3.0756818      Node   309.84545     +0.79359461     +0.10264158
e   0.9781819      Incl.   23.58102     +0.59844857     -0.30962833
P   5.39
From 67 observations 2008 Dec. 21-2014 May 17.

---------------------------------------------------------------------

The orbital elements are published on M.P.E.C. 2014-K37.

---------------------------------------------------------------------

Copyright(C) Seiichi Yoshida (comet@aerith.net). All rights reserved.